Regional Weather Roundup
Issued by NWS Sioux Falls, SD

Home | Current Version | Previous Version | Text Only | Print | Product List | Glossary On
Versions: 1 2 3 4 5 6 7 8 9 10 11 12 13 14 15 16 17 18 19 20 21 22 23 24 25 26 27 28 29 30 31 32 33 34 35 36 37 38 39 40 41 42 43 44 45 46 47 48 49 50
000
ASUS43 KFSD 022010
RWRFSD

WEATHER ROUNDUP FOR SE SOUTH DAKOTA/SW MINNESOTA/NW IOWA
NATIONAL WEATHER SERVICE SIOUX FALLS SD
300 PM CDT WED SEP 02 2015

NOTE: "FAIR" INDICATES FEW OR NO CLOUDS BELOW 12,000 FEET WITH NO
SIGNIFICANT WEATHER AND OR OBSTRUCTIONS TO VISIBILITY.


SDZ038>040-050-052>070-022100-
SOUTHEAST SOUTH DAKOTA

CITY           SKY/WX    TMP DP  RH WIND       PRES   REMARKS
BROOKINGS      MOSUNNY   84  70  61 SE14G22   29.84F
CHAMBERLAIN    MOSUNNY   90  72  54 S8        29.77S HX  96
HURON          PTSUNNY   88  71  57 S8        29.76F
MADISON        FAIR      84  79  84 S14       29.83S HX  96
MITCHELL       MOSUNNY   89  72  56 S16       29.78S HX  96
SIOUX FALLS    PTSUNNY   85  73  67 SE15G22   29.82F
WINNER         FAIR      97  59  28 S12       29.78F HX  96
YANKTON        MOSUNNY   88  73  62 SE17      29.79F HX  96
$$

MNZ071-072-080-081-089-090-097-098-022100-
SOUTHWEST MINNESOTA

CITY           SKY/WX    TMP DP  RH WIND       PRES   REMARKS
FAIRMONT       SUNNY     84  66  54 S14       29.86F
JACKSON        SUNNY     84  72  65 S14       29.88F
LUVERNE        SUNNY     86  72  62 S12       29.85F
MARSHALL       SUNNY     88  72  58 SE8       29.85S
MONTEVIDEO     SUNNY     90  73  58 SE8       29.85F HX  98
PIPESTONE      SUNNY     86  72  62 S9        29.86S
REDWOOD FALLS  SUNNY     86  73  65 SE8       29.84F
TRACY          SUNNY     87  75  68 S5        29.85F HX  96
WINDOM         SUNNY     86  72  62 S9        29.86F
WORTHINGTON    SUNNY     82  72  69 S10       29.86F
$$

IAZ001>003-012>014-020>022-031-032-NEZ013-014-SDZ071-022100-
NORTHWEST IOWA

CITY           SKY/WX    TMP DP  RH WIND       PRES   REMARKS
CHEROKEE       SUNNY     84  74  70 S12       29.87F
DENISON        SUNNY     82  73  74 SW12G22   29.87F
ESTHERVILLE    SUNNY     83  72  69 S14G22    29.87F
LE MARS        SUNNY     84  72  65 S18G25    29.85F
ORANGE CITY    SUNNY     84  72  65 S18       29.85F
SHELDON        SUNNY     84  73  70 S10G18    29.85F
SIOUX CITY     SUNNY     86  70  58 S15       29.84F
SPENCER        SUNNY     86  71  60 S14       29.87F
STORM LAKE     SUNNY     82  73  74 S13G21    29.90S
$$

ABBREVIATIONS USED IN REMARKS
   TC - TEMPERATURE IN CELSIUS
  WCI - WIND CHILL INDEX
   HX - HEAT INDEX
  VSB - VISIBILITY




USA.gov is the U.S. government's official web portal to all federal, state and local government web resources and services.